IDEFIX & ARIANE 42P R/B (27422 NORAD) Tracking and Keplerian Element Data

This shows tracking and keplerian element data for the satellite.

Feedback or suggestion? Click here.




ElementValue
Catalog27422
NameIDEFIX & ARIANE 42P R/B
Epoch Orbit13152
Epoch Day12.84028491
Epoch Year2024
RAAN313.8035
Inclination98.514
Eccentricity0.0011975
Argument of Perigee349.9762
Mean Anonmoly10.118
Mean Motion14.29921173
Decay Rate5.93E-06
L11 27422U 02021B 24012.84028491 .00000593 00000+0 24680-3 0 9996
L22 27422 98.5140 313.8035 0011975 349.9762 10.1180 14.29921173131524



Live tracking and technical data element details for IDEFIX & ARIANE 42P R/B (NORAD 27422). IDEFIX & ARIANE 42P R/B can be tracked NOW for your location showing map with azimuth and elevation plus other details from your city location.







IsCatalogInMostPopularTable: catalog: 27422, numindb: 590
Update: records affected: 1



GetName: 27422 IDEFIX & ARIANE 42P R/B

Hit Count: updated at: Fri, 19 Apr 2024 13:06:14 GMT